Location: *
(44.1392°N, 4.8079°E)
Time: 05:57:14
(UTC+00:00)

Cosmos 1242 Rocket - Visible Passes

Search period start: 26 October 2021 00:00
Search period end: 05 November 2021 00:00
Orbit: 445 x 481 km, 81.2° (Epoch: 25 October)

Date Brightness Start Highest point End Pass type
(mag) Time Alt. Az. Time Alt. Az. Time Alt. Az.
28 Oct 5.4 05:24:17 10° NNE 05:27:02 20° ENE 05:29:46 10° ESE visible
29 Oct 5.9 04:54:13 10° NE 04:55:27 11° ENE 04:56:41 10° E visible
31 Oct 4.0 05:24:24 10° N 05:27:51 40° ENE 05:31:15 10° SSE visible
01 Nov 5.2 04:53:29 10° NNE 04:56:22 22° ENE 04:59:13 10° ESE visible
02 Nov 5.8 04:23:10 10° NE 04:24:47 12° ENE 04:26:24 10° E visible
02 Nov 5.0 18:03:56 10° SSE 18:04:04 11° SSE 18:04:04 11° SSE visible
03 Nov 2.5 05:24:52 10° N 05:28:32 89° SSW 05:32:05 10° S visible
03 Nov 4.4 17:33:31 10° SE 17:34:32 14° ESE 17:34:32 14° ESE visible
03 Nov 5.1 19:07:17 10° SW 19:08:34 18° WSW 19:08:34 18° WSW visible
04 Nov 3.7 04:53:37 10° N 04:57:07 44° ENE 05:00:33 10° SSE visible
04 Nov 3.1 18:35:29 10° SSW 18:38:57 56° W 18:38:57 56° W visible
